sat.trackr.live / text

‹ back to catalog

STARLINK-3005

NORAD 48881 · 2021-059C

PAYLOAD ACTIVE UNKNOWN

§ Identity

Operator
Country
US
Launch date
2021-06-30
Launch site
AFETR
Launch vehicle
Mass (kg)
RCS (m²)

Purposes: comms

External: N2YO · Heavens-Above · Gunter

§ Orbital elements

Epoch: 2026-09-19T13:46:27.602112Z

Period
95.92 min
Inclination
97.2823°
Eccentricity
0.0000645
Mean motion
15.01269139 rev/d
Perigee alt
562.5 km
Apogee alt
563.4 km
Semi-major
6,941.1 km
B*
-2.0722e-5
RAAN
22.9661°
Arg perigee
189.0209°
Mean anomaly
171.1005°
Rev number
28,789

§ Raw data

STARLINK-30051 48881U 21059C   26262.57393058 -.00000320  00000+0 -20722-4 0  99972 48881  97.2823  22.9661 0000645 189.0209 171.1005 15.01269139287898

JSON: /api/v1/satellites/48881 · /tle

For live sub-satellite position, see the globe view (requires WebGL).

§ Visibility from observer

Set your observer location to see the next 7 days of passes ≥ 10°. The values pass through the URL so the page stays shareable.

No JS? Fill the form by hand. The geolocation button needs JavaScript.